SCP
-0 -0 0 -0 -0 -0 -0 -0 -0 -0 -0 -0 0 0 0 0 1 1 1 1 1 1 1 1 0 0 0 0 0 0 0 0 0 0 0 0 0 0 0 0 0 0 0
0 0 0 -0 -0 -0 -0 -0 -0 -0 -0 -0 0 0 0 0 0 1 1 1 1 1 1 1 1 1 1 0 0 0 0 0 0 0 0 0 0 0 0 0 0 0 0
0 0 0 -0 -0 -0 -0 -0 -0 -0 -0 -0 -0 0 0 0 0 0 1 1 1 1 1 1 1 1 1 1 1 1 1 0 0 0 0 0 0 0 0 0 0 0 0
0 0 0 -0 -0 -0 -0 -0 -0 0 0 0 0 0 0 0 0 1 1 1 0 0 0 0 0 0 0 0 1 1 1 1 0 0 0 0 0 0 0 0 1 0 0
0 0 0 -0 -0 -0 -0 -0 0 0 0 0 0 0 0 0 0 0 0 0 1 1 1 1 0 0 0 0 0 0 0 1 1 1 1 0 1 1 0 1 1 0 0
-0 0 -0 -0 -0 -0 -0 -0 0 0 0 0 0 0 0 0 0 0 0 0 0 0 0 1 1 1 1 1 1 -1 1 1 1 1 1 1 1 0 1 1 1 1 1
-0 -0 -0 -0 -0 -0 -0 0 0 0 -0 -0 -0 -0 0 0 0 0 0 0 0 0 0 1 1 1 1 1 1 0 2 1 1 1 1 0 0 0 0 1 1 1 1
-0 -0 -0 0 0 0 0 0 0 0 0 -0 -0 -0 -0 -0 0 0 0 0 0 0 0 0 0 1 1 1 1 1 1 1 1 1 1 0 0 1 1 1 1 1 1
-0 -0 -0 -0 0 0 0 0 0 0 -0 0 0 0 0 0 0 0 0 0 0 0 0 0 0 0 0 1 1 1 1 1 1 0 1 1 0 1 1 1 1 0 1
-0 0 0 0 0 0 0 0 0 0 0 0 -0 -0 -0 0 0 0 0 0 0 0 0 0 0 0 1 1 1 1 1 1 1 0 0 1 1 1 1 1 1 1 2
0 0 0 0 0 0 0 0 0 -0 0 0 0 0 0 0 0 0 0 0 0 0 0 0 0 0 0 0 0 0 0 1 1 0 0 0 1 1 2 1 1 2 2
0 0 0 0 0 0 0 0 0 0 0 0 0 0 0 0 0 0 0 0 0 0 0 0 0 0 0 0 0 0 0 0 0 1 0 0 0 0 1 1 1 1 2
0 0 0 0 0 0 0 0 0 0 0 0 0 0 0 0 0 0 0 0 0 0 0 0 0 0 0 0 0 0 0 0 0 0 0 1 1 0 0 1 1 2 2
0 0 0 0 0 0 0 0 0 0 0 0 0 0 -0 -0 0 0 0 0 0 0 0 0 0 0 -0 -0 -0 0 0 0 0 0 0 0 0 1 1 1 1 1 2
0 0 0 0 0 0 0 0 0 0 0 0 0 0 -0 -0 0 0 0 0 0 0 0 0 0 0 -0 -0 -0 -0 -0 -0 0 0 0 0 0 0 1 1 1 1 1
0 0 0 0 0 0 0 0 0 0 0 0 0 -0 -0 -0 0 0 0 0 0 0 0 0 0 0 0 0 0 0 0 0 0 0 0 0 0 0 0 1 1 1 1
0 0 0 0 0 0 0 0 0 0 0 0 0 0 -0 -0 0 0 0 0 0 0 0 0 0 0 0 0 0 0 0 0 0 0 0 0 0 0 0 0 1 1 1
0 0 0 0 0 0 0 0 0 0 0 0 0 0 0 0 0 0 0 0 0 0 0 0 0 0 0 0 0 0 0 0 0 0 0 0 0 0 0 0 0 0 1
0 0 0 0 0 0 0 0 0 0 0 0 0 0 0 0 0 0 0 0 0 0 0 0 0 0 0 0 0 0 0 0 0 0 0 0 0 0 0 0 0 0 0
0 0 0 0 0 0 0 0 0 0 0 0 0 0 0 0 0 0 0 0 0 0 0 0 0 0 0 0 0 0 0 0 0 0 0 0 0 0 0 0 0 0 0
0 0 0 0 0 0 0 0 0 0 0 0 0 0 0 0 0 0 0 0 0 0 0 0 0 0 0 0 0 0 0 0 0 0 0 0 0 0 0 0 0 0 0
0 0 0 0 0 0 0 0 0 0 0 0 0 0 0 0 0 0 0 0 0 0 0 0 0 0 0 0 0 -0 0 0 0 0 0 0 0 0 0 0 0 0 0
0 0 0 0 0 0 0 0 0 0 0 0 0 0 0 0 0 0 0 0 0 0 0 0 0 0 0 0 0 0 0 0 0 0 0 0 0 0 0 0 0 0 0
0 0 0 0 0 0 0 0 0 0 0 0 0 0 0 0 0 0 0 0 0 0 0 0 0 0 0 0 0 0 0 0 0 0 0 0 0 0 0 0 0 0 0
0 0 0 0 0 0 0 0 0 0 0 0 0 0 0 0 0 0 0 0 0 0 0 0 0 0 0 0 0 0 0 0 0 0 0 0 0 0 0 0 0 0 0
0 0 0 0 0 0 0 0 0 0 0 0 0 0 0 0 0 0 0 0 0 0 0 0 0 0 0 0 0 0 0 0 0 0 0 0 0 0 0 0 0 0 0
Wind_Speed_500mb
14 14 14 22 26 30 30 28 25 22 22 25 25 25 24 25 25 23 21 20 20 21 23 25 26 28 29 25 19 14 14 20 27 21 18 16 31 20 19 19 19 20 19
15 16 16 20 22 26 28 28 25 22 18 18 20 21 18 15 19 23 21 18 19 19 19 21 24 28 30 33 28 23 19 23 25 28 25 21 23 23 20 21 23 21 19
14 19 21 21 23 25 26 26 24 22 18 14 12 12 11 7 8 9 11 12 14 18 21 21 21 23 26 29 31 31 28 27 30 31 28 24 22 25 25 26 21 22 23
21 24 25 25 25 26 26 25 23 21 19 18 16 15 12 9 3 5 7 7 7 7 9 15 18 22 25 23 20 23 31 34 32 33 36 31 27 32 31 29 29 28 28
28 27 29 29 30 31 29 27 24 20 16 13 11 9 9 9 5 2 6 12 16 17 19 21 22 26 26 34 33 28 33 32 34 34 36 35 35 36 36 35 35 31 29
32 33 35 36 38 37 35 32 28 24 21 17 11 8 7 5 4 5 8 11 16 20 24 26 30 31 31 32 38 50 36 38 36 40 36 35 39 43 35 37 38 35 33
43 42 42 40 38 34 32 31 30 28 23 18 12 9 11 10 9 11 11 14 18 24 28 29 31 32 33 32 38 45 41 51 46 50 43 36 39 41 40 42 36 34 35
47 45 42 35 33 33 30 30 29 28 25 20 14 11 4 7 4 2 10 13 16 20 25 28 32 38 41 38 37 41 44 46 49 48 49 59 44 48 46 45 51 40 45
45 40 33 28 23 22 23 24 26 27 24 22 17 12 9 15 15 16 9 14 20 22 22 25 25 27 32 39 48 46 46 46 48 50 50 57 53 59 55 39 43 61 53
42 30 24 18 13 13 18 22 28 32 32 31 28 25 21 24 23 27 26 26 28 31 30 25 20 25 20 22 32 40 49 53 54 56 54 55 63 61 56 48 54 47 59
36 30 27 23 24 21 16 17 19 29 33 38 41 33 20 17 27 34 36 37 37 43 44 38 32 26 25 28 32 34 35 41 54 63 60 57 57 60 59 60 54 61 70
38 32 22 22 22 16 12 14 25 32 37 42 42 40 38 35 25 24 33 40 41 41 38 36 34 33 32 33 32 30 35 39 44 50 64 72 68 55 55 63 52 58 73
36 31 20 15 12 4 6 17 27 32 40 44 43 41 41 33 30 24 24 26 35 42 45 47 42 41 44 44 46 44 40 38 43 45 52 62 63 71 71 55 61 66 76
30 21 15 10 4 6 16 20 25 34 37 41 44 44 43 40 39 29 25 23 25 30 36 41 45 47 48 52 54 58 59 57 54 51 52 56 47 44 59 73 62 69 81
26 17 8 7 6 10 16 15 18 22 27 34 40 43 46 43 48 31 27 27 29 33 37 40 44 50 55 61 64 66 70 72 71 69 65 58 54 45 52 65 67 67 81
33 22 12 6 6 6 11 11 17 17 24 32 38 43 43 49 48 35 27 27 32 32 32 34 38 42 46 51 55 55 57 64 70 77 79 75 65 48 45 54 66 79 79
31 23 15 8 6 7 8 7 9 17 25 33 37 40 45 50 36 27 23 26 25 26 27 29 33 34 38 42 39 39 43 44 50 57 69 79 79 67 50 46 54 58 70
29 21 14 10 10 7 8 7 12 16 24 30 33 39 46 36 28 25 26 28 27 29 30 33 35 38 43 42 45 46 45 44 40 41 48 60 75 72 63 58 48 54 60
29 25 20 12 6 4 7 7 9 14 22 24 30 40 37 30 31 29 29 29 30 29 27 34 33 36 42 46 51 54 52 42 35 38 40 43 52 71 73 57 55 46 56
28 25 14 9 6 6 5 10 11 14 16 21 31 38 27 34 37 36 35 34 33 32 33 34 33 32 39 46 50 55 46 27 16 23 17 14 26 48 70 64 59 44 44
27 21 14 7 6 7 2 14 14 11 11 22 32 28 22 32 33 34 35 34 35 36 37 35 36 37 39 44 52 61 47 23 17 12 12 19 27 31 33 44 55 52 44
25 20 9 6 6 6 3 9 11 7 12 23 19 24 32 28 30 34 36 35 37 36 38 38 34 38 43 43 46 44 47 29 43 5 23 30 32 23 16 28 34 41 37
26 15 5 2 7 5 2 3 11 7 9 10 14 21 29 29 31 34 36 39 35 34 37 38 35 33 40 41 36 33 20 18 60 36 37 34 27 24 13 17 18 32 42
25 12 4 6 8 8 7 10 16 12 4 13 17 19 21 23 27 31 33 32 33 33 37 38 32 33 34 37 37 30 29 33 21 35 55 40 28 26 29 13 18 25 28
22 11 5 4 5 7 7 6 1 5 14 11 14 14 18 18 21 29 32 29 32 35 39 37 30 31 32 31 35 35 30 32 27 31 44 56 28 24 24 22 8 13 27
26 19 9 3 8 6 9 8 6 12 12 14 13 13 15 20 21 28 31 32 31 34 41 39 30 28 28 26 27 27 29 31 35 31 40 47 45 31 24 22 15 17 12
Wind_Direction_500mb
78 91 78 71 69 69 73 78 82 90 98 104 108 112 115 114 112 115 118 126 136 152 159 169 178 195 207 211 213 203 204 200 196 204 214 246 255 242 210 206 199 186 177
116 105 98 87 80 79 78 79 84 88 88 91 88 90 97 121 132 134 137 145 148 156 172 181 187 201 212 219 224 229 224 226 223 220 229 240 235 224 222 214 201 185 183
128 116 101 90 84 79 79 78 78 80 82 80 77 66 81 96 135 159 154 158 170 179 186 194 208 212 219 230 235 233 232 235 236 239 239 243 224 229 227 225 221 218 208
118 104 96 91 86 82 80 79 78 75 75 75 70 67 60 68 106 164 194 218 236 228 236 236 230 224 222 227 236 254 243 235 237 240 243 242 229 230 228 230 230 228 224
108 103 94 90 86 84 81 77 75 76 74 67 61 64 67 64 57 328 257 257 253 239 232 241 248 247 239 236 241 242 264 244 233 235 237 235 235 228 226 231 234 229 229
106 101 97 92 87 82 78 78 77 76 74 74 74 66 43 19 347 301 281 271 264 258 253 252 258 249 248 238 241 232 248 259 239 234 243 246 235 231 221 227 235 229 221
106 102 100 95 88 82 76 68 63 61 58 55 51 59 69 59 50 13 329 299 271 262 265 265 261 260 258 246 243 238 237 238 240 239 235 242 231 225 227 232 230 230 230
107 109 103 89 72 57 52 56 54 51 44 38 36 29 306 258 268 303 357 309 284 277 272 274 272 266 261 259 251 249 250 246 250 242 233 244 234 225 232 230 229 228 237
106 99 91 81 60 43 46 40 34 27 17 7 355 336 291 271 272 273 232 257 271 281 286 292 291 281 270 264 258 254 252 250 250 250 236 230 222 235 234 236 228 238 235
109 103 103 114 95 49 42 30 16 6 356 347 339 332 283 265 265 268 273 280 286 292 286 281 281 278 283 278 262 256 253 251 252 251 248 239 234 241 239 240 239 238 238
125 131 134 131 103 103 63 43 9 349 347 345 343 350 341 321 269 264 266 272 275 276 279 277 273 278 260 259 264 261 250 252 250 251 251 249 241 240 243 242 245 235 233
140 128 118 113 103 95 50 3 341 343 344 344 346 348 351 348 339 295 277 270 270 270 267 268 272 269 268 266 266 268 257 252 251 250 253 252 248 244 250 246 237 233 223
148 145 148 158 168 173 0 348 343 342 339 342 344 347 347 348 340 325 295 276 263 262 265 269 271 268 268 271 267 264 262 259 259 257 252 249 255 256 248 249 239 222 228
157 151 140 169 159 355 354 348 338 331 335 335 340 341 344 347 349 337 311 292 282 276 276 276 278 281 278 275 277 272 267 263 262 261 260 258 255 255 247 242 243 233 229
158 148 165 204 331 340 334 350 326 323 325 333 334 340 343 344 343 331 308 302 307 308 303 298 291 284 282 282 281 279 274 269 266 264 261 261 261 255 246 240 241 234 229
147 158 194 245 314 320 333 327 324 323 327 327 335 340 341 341 340 334 324 316 320 322 323 320 313 309 304 299 295 294 286 279 272 266 263 258 259 263 251 250 245 236 236
171 184 203 221 306 326 343 331 305 320 323 328 336 340 342 343 348 350 340 336 346 351 351 345 340 338 335 331 324 316 310 297 286 277 265 259 256 258 255 252 255 249 243
202 210 214 263 280 316 348 350 320 325 325 329 335 341 344 355 10 22 21 17 13 8 6 359 353 348 344 346 339 331 325 311 296 285 277 263 254 256 257 252 257 263 246
200 214 217 235 247 341 324 285 294 308 314 330 337 343 0 22 34 37 35 31 26 21 9 355 359 349 349 344 342 340 333 317 297 286 289 281 264 256 255 256 254 259 255
219 210 229 255 279 312 283 265 271 292 315 328 342 358 29 43 50 45 42 36 31 21 12 5 357 352 352 346 344 338 341 314 297 337 324 314 300 276 257 252 255 256 254
218 226 239 250 288 312 245 198 243 280 321 338 351 19 49 52 45 41 33 25 20 12 6 0 358 0 359 353 350 351 15 22 11 344 317 339 320 302 277 260 252 250 248
208 235 247 255 324 348 360 178 242 281 341 351 20 38 43 46 37 31 26 19 11 11 9 6 359 356 358 359 356 0 356 1 346 173 356 356 343 333 286 264 259 240 252
200 214 249 318 6 36 59 210 186 236 329 357 37 36 36 31 27 28 20 10 7 8 6 7 5 357 351 359 3 4 341 334 342 339 358 359 359 17 327 263 246 250 251
202 210 203 18 359 49 90 207 243 264 354 46 37 29 32 22 15 18 12 7 8 5 1 3 1 358 353 352 358 3 342 343 327 329 343 4 3 8 20 308 267 255 260
196 190 204 10 33 53 78 37 246 93 71 52 25 20 27 19 19 16 16 12 5 12 7 2 359 357 357 359 354 352 352 350 348 322 330 346 346 14 18 15 175 229 246
193 197 194 285 28 24 32 32 86 105 92 69 47 30 26 34 28 21 15 10 12 5 3 6 2 360 360 354 350 349 353 345 337 332 330 338 335 347 35 20 68 117 168
Wind_Speed_850mb
14 14 14 22 26 30 30 28 25 22 22 25 25 25 24 25 25 23 21 20 20 21 23 25 26 28 29 25 19 14 14 20 27 21 18 16 31 20 19 19 19 20 19
15 16 16 20 22 26 28 28 25 22 18 18 20 21 18 15 19 23 21 18 19 19 19 21 24 28 30 33 28 23 19 23 25 28 25 21 23 23 20 21 23 21 19
14 19 21 21 23 25 26 26 24 22 18 14 12 12 11 7 8 9 11 12 14 18 21 21 21 23 26 29 31 31 28 27 30 31 28 24 22 25 25 26 21 22 23
21 24 25 25 25 26 26 25 23 21 19 18 16 15 12 9 3 5 7 7 7 7 9 15 18 22 25 23 20 23 31 34 32 33 36 31 27 32 31 29 29 28 28
28 27 29 29 30 31 29 27 24 20 16 13 11 9 9 9 5 2 6 12 16 17 19 21 22 26 26 34 33 28 33 32 34 34 36 35 35 36 36 35 35 31 29
32 33 35 36 38 37 35 32 28 24 21 17 11 8 7 5 4 5 8 11 16 20 24 26 30 31 31 32 38 50 36 38 36 40 36 35 39 43 35 37 38 35 33
43 42 42 40 38 34 32 31 30 28 23 18 12 9 11 10 9 11 11 14 18 24 28 29 31 32 33 32 38 45 41 51 46 50 43 36 39 41 40 42 36 34 35
47 45 42 35 33 33 30 30 29 28 25 20 14 11 4 7 4 2 10 13 16 20 25 28 32 38 41 38 37 41 44 46 49 48 49 59 44 48 46 45 51 40 45
45 40 33 28 23 22 23 24 26 27 24 22 17 12 9 15 15 16 9 14 20 22 22 25 25 27 32 39 48 46 46 46 48 50 50 57 53 59 55 39 43 61 53
42 30 24 18 13 13 18 22 28 32 32 31 28 25 21 24 23 27 26 26 28 31 30 25 20 25 20 22 32 40 49 53 54 56 54 55 63 61 56 48 54 47 59
36 30 27 23 24 21 16 17 19 29 33 38 41 33 20 17 27 34 36 37 37 43 44 38 32 26 25 28 32 34 35 41 54 63 60 57 57 60 59 60 54 61 70
38 32 22 22 22 16 12 14 25 32 37 42 42 40 38 35 25 24 33 40 41 41 38 36 34 33 32 33 32 30 35 39 44 50 64 72 68 55 55 63 52 58 73
36 31 20 15 12 4 6 17 27 32 40 44 43 41 41 33 30 24 24 26 35 42 45 47 42 41 44 44 46 44 40 38 43 45 52 62 63 71 71 55 61 66 76
30 21 15 10 4 6 16 20 25 34 37 41 44 44 43 40 39 29 25 23 25 30 36 41 45 47 48 52 54 58 59 57 54 51 52 56 47 44 59 73 62 69 81
26 17 8 7 6 10 16 15 18 22 27 34 40 43 46 43 48 31 27 27 29 33 37 40 44 50 55 61 64 66 70 72 71 69 65 58 54 45 52 65 67 67 81
33 22 12 6 6 6 11 11 17 17 24 32 38 43 43 49 48 35 27 27 32 32 32 34 38 42 46 51 55 55 57 64 70 77 79 75 65 48 45 54 66 79 79
31 23 15 8 6 7 8 7 9 17 25 33 37 40 45 50 36 27 23 26 25 26 27 29 33 34 38 42 39 39 43 44 50 57 69 79 79 67 50 46 54 58 70
29 21 14 10 10 7 8 7 12 16 24 30 33 39 46 36 28 25 26 28 27 29 30 33 35 38 43 42 45 46 45 44 40 41 48 60 75 72 63 58 48 54 60
29 25 20 12 6 4 7 7 9 14 22 24 30 40 37 30 31 29 29 29 30 29 27 34 33 36 42 46 51 54 52 42 35 38 40 43 52 71 73 57 55 46 56
28 25 14 9 6 6 5 10 11 14 16 21 31 38 27 34 37 36 35 34 33 32 33 34 33 32 39 46 50 55 46 27 16 23 17 14 26 48 70 64 59 44 44
27 21 14 7 6 7 2 14 14 11 11 22 32 28 22 32 33 34 35 34 35 36 37 35 36 37 39 44 52 61 47 23 17 12 12 19 27 31 33 44 55 52 44
25 20 9 6 6 6 3 9 11 7 12 23 19 24 32 28 30 34 36 35 37 36 38 38 34 38 43 43 46 44 47 29 43 5 23 30 32 23 16 28 34 41 37
26 15 5 2 7 5 2 3 11 7 9 10 14 21 29 29 31 34 36 39 35 34 37 38 35 33 40 41 36 33 20 18 60 36 37 34 27 24 13 17 18 32 42
25 12 4 6 8 8 7 10 16 12 4 13 17 19 21 23 27 31 33 32 33 33 37 38 32 33 34 37 37 30 29 33 21 35 55 40 28 26 29 13 18 25 28
22 11 5 4 5 7 7 6 1 5 14 11 14 14 18 18 21 29 32 29 32 35 39 37 30 31 32 31 35 35 30 32 27 31 44 56 28 24 24 22 8 13 27
26 19 9 3 8 6 9 8 6 12 12 14 13 13 15 20 21 28 31 32 31 34 41 39 30 28 28 26 27 27 29 31 35 31 40 47 45 31 24 22 15 17 12
Wind_Direction_850mb
78 91 78 71 69 69 73 78 82 90 98 104 108 112 115 114 112 115 118 126 136 152 159 169 178 195 207 211 213 203 204 200 196 204 214 246 255 242 210 206 199 186 177
116 105 98 87 80 79 78 79 84 88 88 91 88 90 97 121 132 134 137 145 148 156 172 181 187 201 212 219 224 229 224 226 223 220 229 240 235 224 222 214 201 185 183
128 116 101 90 84 79 79 78 78 80 82 80 77 66 81 96 135 159 154 158 170 179 186 194 208 212 219 230 235 233 232 235 236 239 239 243 224 229 227 225 221 218 208
118 104 96 91 86 82 80 79 78 75 75 75 70 67 60 68 106 164 194 218 236 228 236 236 230 224 222 227 236 254 243 235 237 240 243 242 229 230 228 230 230 228 224
108 103 94 90 86 84 81 77 75 76 74 67 61 64 67 64 57 328 257 257 253 239 232 241 248 247 239 236 241 242 264 244 233 235 237 235 235 228 226 231 234 229 229
106 101 97 92 87 82 78 78 77 76 74 74 74 66 43 19 347 301 281 271 264 258 253 252 258 249 248 238 241 232 248 259 239 234 243 246 235 231 221 227 235 229 221
106 102 100 95 88 82 76 68 63 61 58 55 51 59 69 59 50 13 329 299 271 262 265 265 261 260 258 246 243 238 237 238 240 239 235 242 231 225 227 232 230 230 230
107 109 103 89 72 57 52 56 54 51 44 38 36 29 306 258 268 303 357 309 284 277 272 274 272 266 261 259 251 249 250 246 250 242 233 244 234 225 232 230 229 228 237
106 99 91 81 60 43 46 40 34 27 17 7 355 336 291 271 272 273 232 257 271 281 286 292 291 281 270 264 258 254 252 250 250 250 236 230 222 235 234 236 228 238 235
109 103 103 114 95 49 42 30 16 6 356 347 339 332 283 265 265 268 273 280 286 292 286 281 281 278 283 278 262 256 253 251 252 251 248 239 234 241 239 240 239 238 238
125 131 134 131 103 103 63 43 9 349 347 345 343 350 341 321 269 264 266 272 275 276 279 277 273 278 260 259 264 261 250 252 250 251 251 249 241 240 243 242 245 235 233
140 128 118 113 103 95 50 3 341 343 344 344 346 348 351 348 339 295 277 270 270 270 267 268 272 269 268 266 266 268 257 252 251 250 253 252 248 244 250 246 237 233 223
148 145 148 158 168 173 0 348 343 342 339 342 344 347 347 348 340 325 295 276 263 262 265 269 271 268 268 271 267 264 262 259 259 257 252 249 255 256 248 249 239 222 228
157 151 140 169 159 355 354 348 338 331 335 335 340 341 344 347 349 337 311 292 282 276 276 276 278 281 278 275 277 272 267 263 262 261 260 258 255 255 247 242 243 233 229
158 148 165 204 331 340 334 350 326 323 325 333 334 340 343 344 343 331 308 302 307 308 303 298 291 284 282 282 281 279 274 269 266 264 261 261 261 255 246 240 241 234 229
147 158 194 245 314 320 333 327 324 323 327 327 335 340 341 341 340 334 324 316 320 322 323 320 313 309 304 299 295 294 286 279 272 266 263 258 259 263 251 250 245 236 236
171 184 203 221 306 326 343 331 305 320 323 328 336 340 342 343 348 350 340 336 346 351 351 345 340 338 335 331 324 316 310 297 286 277 265 259 256 258 255 252 255 249 243
202 210 214 263 280 316 348 350 320 325 325 329 335 341 344 355 10 22 21 17 13 8 6 359 353 348 344 346 339 331 325 311 296 285 277 263 254 256 257 252 257 263 246
200 214 217 235 247 341 324 285 294 308 314 330 337 343 0 22 34 37 35 31 26 21 9 355 359 349 349 344 342 340 333 317 297 286 289 281 264 256 255 256 254 259 255
219 210 229 255 279 312 283 265 271 292 315 328 342 358 29 43 50 45 42 36 31 21 12 5 357 352 352 346 344 338 341 314 297 337 324 314 300 276 257 252 255 256 254
218 226 239 250 288 312 245 198 243 280 321 338 351 19 49 52 45 41 33 25 20 12 6 0 358 0 359 353 350 351 15 22 11 344 317 339 320 302 277 260 252 250 248
208 235 247 255 324 348 360 178 242 281 341 351 20 38 43 46 37 31 26 19 11 11 9 6 359 356 358 359 356 0 356 1 346 173 356 356 343 333 286 264 259 240 252
200 214 249 318 6 36 59 210 186 236 329 357 37 36 36 31 27 28 20 10 7 8 6 7 5 357 351 359 3 4 341 334 342 339 358 359 359 17 327 263 246 250 251
202 210 203 18 359 49 90 207 243 264 354 46 37 29 32 22 15 18 12 7 8 5 1 3 1 358 353 352 358 3 342 343 327 329 343 4 3 8 20 308 267 255 260
196 190 204 10 33 53 78 37 246 93 71 52 25 20 27 19 19 16 16 12 5 12 7 2 359 357 357 359 354 352 352 350 348 322 330 346 346 14 18 15 175 229 246
193 197 194 285 28 24 32 32 86 105 92 69 47 30 26 34 28 21 15 10 12 5 3 6 2 360 360 354 350 349 353 345 337 332 330 338 335 347 35 20 68 117 168